Flag for Canada Weather past 2 weeks in Summerside, Prince Edward Island, Canada

Now
65 °F

Mild.


Feels Like: 65 °F
Forecast: 65 / 80 °F
Wind: 9 mph from Southwest

Location: Summerside Airport

Current Time: Aug 31, 2015 at 4:14:39 AM

Latest Report: Aug 31, 2015 at 3:00 AM


Visibility: N/A

Pressure: 29.88 "Hg

Humidity: 81%

Dew point: 59 °F

Location of SummersideLocation

Historic Weather in Summerside — Graph

°F

Summerside temperature yesterday

Maximum temperature yesterday: 78 °F (at 4:00 PM)
Minimum temperature yesterday: 64 °F (at 5:00 AM)
Average temperature yesterday: 69 °F

Past Weeks' High & Low Weather Summary

 TemperatureHumidityPressure
High87 °F (Aug 18, 4:00 PM)100% (Aug 16, 5:00 AM)30.21 "Hg (Aug 16, 5:00 AM)
Low60 °F (Aug 28, 6:00 AM)61% (Aug 30, 6:00 PM)29.78 "Hg (Aug 27, 6:00 PM)
Average72 °F84%30.01 "Hg
* Reported Aug 16 3:00 AM — Aug 31 3:00 AM, Summerside, Weather by CustomWeather, © 2015

Note: Actual official high and low records may vary slightly from our data, if they occured in-between our weather recording intervals... More about our weather records

Advertising

Summerside weather history for previous 24 hours

 ConditionsComfort  
Time TempWeatherWind HumidityBarometerVisibility
3:00 AM
Mon, Aug 31
65 °FMild.9 mph81%29.88 "HgN/A
2:00 AM65 °FMild.8 mph79%29.89 "HgN/A
1:00 AM66 °FMild.9 mph82%29.90 "HgN/A
12:00 AM64 °FMild.8 mph87%29.90 "HgN/A
11:00 PM
Sun, Aug 30
67 °FMild.8 mph80%29.91 "HgN/A
10:00 PM67 °FMild.7 mph76%29.92 "HgN/A
9:00 PM67 °FMild.8 mph75%29.92 "HgN/A
8:00 PM68 °FMild.6 mph75%29.91 "HgN/A
7:00 PM71 °FMild.8 mph71%29.90 "HgN/A
6:00 PM73 °FMild.8 mph61%29.91 "HgN/A
5:00 PM74 °FMild.7 mph67%29.91 "HgN/A
4:00 PM78 °FWarm.9 mph63%29.92 "HgN/A
3:00 PM76 °FMild.12 mph64%29.92 "HgN/A
2:00 PM76 °FMild.15 mph64%29.94 "HgN/A
1:00 PM73 °FMild.14 mph66%29.95 "HgN/A
12:00 PM71 °FMild.10 mph68%29.96 "HgN/A
11:00 AM69 °FMild.10 mph64%29.97 "HgN/A
10:00 AM68 °FMild.9 mph69%29.97 "HgN/A
9:00 AM67 °FMild.7 mph76%29.96 "HgN/A
8:00 AM66 °FMild.9 mph76%29.96 "HgN/A
7:00 AM65 °FMild.9 mph76%29.96 "HgN/A
6:00 AM64 °FMild.10 mph78%29.96 "HgN/A
5:00 AM64 °FMild.8 mph80%29.96 "HgN/A
4:00 AM66 °FMild.10 mph78%29.97 "HgN/A
Weather by CustomWeather, © 2015

See weather overviewHow to use our weather pages